Time,TemperatureF,DewpointF,PressureIn,WindDirection,WindDirectionDegrees,WindSpeedMPH,WindSpeedGustMPH,Humidity,HourlyPrecipIn,Conditions,Clouds,dailyrainin,SoftwareType,DateUTC
2013-06-02 00:01:00,66.7,64.6,29.98,ESE,121,0.0,0.0,93,0.00,,,0.56,Wunderground v.1.15,2013-06-02 04:01:00,
2013-06-02 00:02:00,66.7,64.6,29.98,ESE,121,0.0,0.0,93,0.00,,,0.00,Wunderground v.1.15,2013-06-02 04:02:00,
2013-06-02 00:03:00,66.6,64.5,29.98,ESE,121,0.0,0.0,93,0.00,,,0.00,Wunderground v.1.15,2013-06-02 04:03:00,
2013-06-02 00:04:00,66.6,64.5,29.97,ESE,121,0.0,0.0,93,0.00,,,0.00,Wunderground v.1.15,2013-06-02 04:04:00,
2013-06-02 00:09:00,66.6,64.5,29.98,SE,138,0.0,0.0,93,0.00,,,0.00,Wunderground v.1.15,2013-06-02 04:09:00,
2013-06-02 00:11:00,66.5,64.4,29.98,SE,138,0.0,1.0,93,0.00,,,0.00,Wunderground v.1.15,2013-06-02 04:11:00,
2013-06-02 00:16:00,66.5,64.4,29.97,SE,138,0.0,1.0,93,0.00,,,0.00,Wunderground v.1.15,2013-06-02 04:16:00,
2013-06-02 00:21:00,66.5,64.4,29.96,SE,138,0.0,0.0,93,0.00,,,0.00,Wunderground v.1.15,2013-06-02 04:21:00,
2013-06-02 00:27:00,66.5,64.4,29.97,East,92,0.0,0.0,93,0.00,,,0.00,Wunderground v.1.15,2013-06-02 04:27:00,
2013-06-02 00:32:00,66.4,64.3,29.97,ESE,113,0.0,4.0,93,0.00,,,0.00,Wunderground v.1.15,2013-06-02 04:32:00,
2013-06-02 00:37:00,66.4,64.3,29.97,ESE,113,0.0,4.0,93,0.00,,,0.00,Wunderground v.1.15,2013-06-02 04:37:00,
2013-06-02 00:42:00,66.3,64.2,29.96,ESE,113,0.0,0.0,93,0.00,,,0.00,Wunderground v.1.15,2013-06-02 04:42:00,
2013-06-02 00:47:00,66.3,64.2,29.96,ESE,113,0.0,0.0,93,0.00,,,0.00,Wunderground v.1.15,2013-06-02 04:47:00,
2013-06-02 00:52:00,66.2,64.1,29.96,ESE,113,0.0,0.0,93,0.00,,,0.00,Wunderground v.1.15,2013-06-02 04:52:00,
2013-06-02 00:57:00,66.2,64.1,29.97,ESE,113,0.0,0.0,93,0.00,,,0.00,Wunderground v.1.15,2013-06-02 04:57:00,
2013-06-02 01:02:00,66.2,64.1,29.96,ESE,113,0.0,0.0,93,0.00,,,0.00,Wunderground v.1.15,2013-06-02 05:02:00,
2013-06-02 01:07:00,66.1,64.0,29.96,ESE,113,0.0,0.0,93,0.00,,,0.00,Wunderground v.1.15,2013-06-02 05:07:00,
2013-06-02 01:12:00,66.1,64.0,29.96,ESE,113,0.0,0.0,93,0.00,,,0.00,Wunderground v.1.15,2013-06-02 05:12:00,
2013-06-02 01:17:00,66.1,64.0,29.97,ESE,113,0.0,0.0,93,0.00,,,0.00,Wunderground v.1.15,2013-06-02 05:17:00,
2013-06-02 01:23:00,66.0,63.9,29.97,ESE,113,0.0,0.0,93,0.00,,,0.00,Wunderground v.1.15,2013-06-02 05:23:00,
2013-06-02 01:28:00,66.0,63.9,29.97,ESE,113,0.0,0.0,93,0.00,,,0.00,Wunderground v.1.15,2013-06-02 05:28:00,
2013-06-02 01:33:00,66.0,63.9,29.97,ESE,113,0.0,0.0,93,0.00,,,0.00,Wunderground v.1.15,2013-06-02 05:33:00,
2013-06-02 01:38:00,66.1,64.0,29.97,ESE,113,0.0,0.0,93,0.00,,,0.00,Wunderground v.1.15,2013-06-02 05:38:00,
2013-06-02 01:43:00,66.1,64.0,29.97,ESE,113,0.0,0.0,93,0.00,,,0.00,Wunderground v.1.15,2013-06-02 05:43:00,
2013-06-02 01:49:00,66.1,64.0,29.97,ESE,113,0.0,0.0,93,0.00,,,0.00,Wunderground v.1.15,2013-06-02 05:49:00,
2013-06-02 01:54:00,66.1,64.0,29.97,ESE,113,0.0,0.0,93,0.00,,,0.00,Wunderground v.1.15,2013-06-02 05:54:00,
2013-06-02 01:59:00,66.2,64.1,29.97,ESE,113,0.0,0.0,93,0.00,,,0.00,Wunderground v.1.15,2013-06-02 05:59:00,
2013-06-02 02:04:00,66.2,64.1,29.97,ESE,113,0.0,0.0,93,0.00,,,0.00,Wunderground v.1.15,2013-06-02 06:04:00,
2013-06-02 02:09:00,66.3,64.2,29.97,ESE,113,0.0,0.0,93,0.00,,,0.00,Wunderground v.1.15,2013-06-02 06:09:00,
2013-06-02 02:14:00,66.3,64.2,29.97,ESE,113,0.0,0.0,93,0.00,,,0.00,Wunderground v.1.15,2013-06-02 06:14:00,
2013-06-02 02:19:00,66.3,64.2,29.96,ESE,113,0.0,0.0,93,0.00,,,0.00,Wunderground v.1.15,2013-06-02 06:19:00,
2013-06-02 02:24:00,66.4,64.6,29.97,ESE,113,0.0,0.0,94,0.00,,,0.00,Wunderground v.1.15,2013-06-02 06:24:00,
2013-06-02 02:29:00,66.4,64.6,29.97,WSW,252,2.0,3.0,94,0.00,,,0.00,Wunderground v.1.15,2013-06-02 06:29:00,
2013-06-02 02:34:00,66.5,64.7,29.97,WSW,252,0.0,0.0,94,0.00,,,0.00,Wunderground v.1.15,2013-06-02 06:34:00,
2013-06-02 02:39:00,66.6,64.8,29.96,WSW,252,0.0,0.0,94,0.00,,,0.00,Wunderground v.1.15,2013-06-02 06:39:00,
2013-06-02 02:44:00,66.7,64.9,29.96,WSW,252,0.0,0.0,94,0.00,,,0.00,Wunderground v.1.15,2013-06-02 06:44:00,
2013-06-02 02:49:00,66.7,64.9,29.96,WSW,252,0.0,0.0,94,0.00,,,0.00,Wunderground v.1.15,2013-06-02 06:49:00,
2013-06-02 02:54:00,66.7,64.9,29.96,WSW,252,0.0,0.0,94,0.00,,,0.00,Wunderground v.1.15,2013-06-02 06:54:00,
2013-06-02 02:59:00,66.7,64.9,29.96,WSW,252,0.0,0.0,94,0.00,,,0.00,Wunderground v.1.15,2013-06-02 06:59:00,
2013-06-02 03:04:00,66.7,64.9,29.96,WSW,252,0.0,0.0,94,0.00,,,0.00,Wunderground v.1.15,2013-06-02 07:04:00,
2013-06-02 03:09:00,66.7,64.9,29.96,WSW,252,0.0,0.0,94,0.00,,,0.00,Wunderground v.1.15,2013-06-02 07:09:00,
2013-06-02 03:14:00,66.7,64.9,29.96,WSW,252,0.0,0.0,94,0.00,,,0.00,Wunderground v.1.15,2013-06-02 07:14:00,
2013-06-02 03:19:00,66.7,64.9,29.96,WSW,252,0.0,0.0,94,0.00,,,0.01,Wunderground v.1.15,2013-06-02 07:19:00,
2013-06-02 03:24:00,66.8,65.0,29.95,WSW,252,0.0,0.0,94,0.00,,,0.01,Wunderground v.1.15,2013-06-02 07:24:00,
2013-06-02 03:29:00,66.7,64.9,29.94,WSW,252,0.0,0.0,94,0.00,,,0.01,Wunderground v.1.15,2013-06-02 07:29:00,
2013-06-02 03:34:00,66.7,64.9,29.95,WSW,252,0.0,1.0,94,0.00,,,0.01,Wunderground v.1.15,2013-06-02 07:34:00,
2013-06-02 03:39:00,66.7,64.9,29.95,WSW,252,2.0,2.0,94,0.00,,,0.01,Wunderground v.1.15,2013-06-02 07:39:00,
2013-06-02 03:44:00,66.7,64.9,29.95,WSW,252,0.0,0.0,94,0.00,,,0.01,Wunderground v.1.15,2013-06-02 07:44:00,
2013-06-02 03:49:00,66.8,65.0,29.95,WSW,252,0.0,1.0,94,0.00,,,0.01,Wunderground v.1.15,2013-06-02 07:49:00,
2013-06-02 03:54:00,66.8,65.0,29.95,WSW,252,0.0,0.0,94,0.00,,,0.01,Wunderground v.1.15,2013-06-02 07:54:00,
2013-06-02 03:59:00,66.8,65.0,29.95,WSW,252,0.0,0.0,94,0.00,,,0.01,Wunderground v.1.15,2013-06-02 07:59:00,
2013-06-02 04:04:00,66.8,65.0,29.95,WSW,252,0.0,0.0,94,0.00,,,0.01,Wunderground v.1.15,2013-06-02 08:04:00,
2013-06-02 04:09:00,66.8,65.0,29.94,WSW,252,0.0,0.0,94,0.00,,,0.01,Wunderground v.1.15,2013-06-02 08:09:00,
2013-06-02 04:14:00,66.8,65.0,29.94,WSW,252,0.0,0.0,94,0.00,,,0.01,Wunderground v.1.15,2013-06-02 08:14:00,
2013-06-02 04:19:00,66.8,65.0,29.94,WSW,252,0.0,1.0,94,0.00,,,0.01,Wunderground v.1.15,2013-06-02 08:19:00,
2013-06-02 04:24:00,66.8,65.0,29.94,WSW,252,0.0,0.0,94,0.00,,,0.01,Wunderground v.1.15,2013-06-02 08:24:00,
2013-06-02 04:29:00,66.7,64.9,29.94,WSW,252,0.0,0.0,94,0.00,,,0.01,Wunderground v.1.15,2013-06-02 08:29:00,
2013-06-02 04:34:00,66.7,64.9,29.94,WSW,252,0.0,1.0,94,0.00,,,0.01,Wunderground v.1.15,2013-06-02 08:34:00,
2013-06-02 04:39:00,66.8,65.0,29.94,WSW,252,0.0,2.0,94,0.00,,,0.02,Wunderground v.1.15,2013-06-02 08:39:00,
2013-06-02 04:44:00,66.8,65.0,29.94,WSW,252,0.0,3.0,94,0.00,,,0.02,Wunderground v.1.15,2013-06-02 08:44:00,
2013-06-02 04:49:00,66.8,65.0,29.93,WSW,257,1.0,3.0,94,0.00,,,0.02,Wunderground v.1.15,2013-06-02 08:49:00,
2013-06-02 04:54:00,66.8,65.0,29.93,WSW,258,0.0,1.0,94,0.00,,,0.02,Wunderground v.1.15,2013-06-02 08:54:00,
2013-06-02 04:59:00,66.8,65.0,29.93,West,260,3.0,3.0,94,0.00,,,0.02,Wunderground v.1.15,2013-06-02 08:59:00,
2013-06-02 05:04:00,66.8,65.0,29.93,West,271,0.0,3.0,94,0.00,,,0.02,Wunderground v.1.15,2013-06-02 09:04:00,
2013-06-02 05:09:00,66.7,64.9,29.93,West,271,0.0,3.0,94,0.00,,,0.02,Wunderground v.1.15,2013-06-02 09:09:00,
2013-06-02 05:14:00,66.7,64.9,29.93,West,271,1.0,1.0,94,0.00,,,0.02,Wunderground v.1.15,2013-06-02 09:14:00,
2013-06-02 05:19:00,66.7,64.9,29.93,West,271,0.0,1.0,94,0.00,,,0.02,Wunderground v.1.15,2013-06-02 09:19:00,
2013-06-02 05:24:00,66.7,64.9,29.93,West,271,1.0,1.0,94,0.00,,,0.03,Wunderground v.1.15,2013-06-02 09:24:00,
2013-06-02 05:29:00,66.7,64.9,29.93,West,271,0.0,1.0,94,0.21,,,0.05,Wunderground v.1.15,2013-06-02 09:29:00,
2013-06-02 05:34:00,66.7,64.9,29.94,West,271,0.0,1.0,94,0.25,,,0.07,Wunderground v.1.15,2013-06-02 09:34:00,
2013-06-02 05:39:00,66.7,64.9,29.93,West,271,0.0,1.0,94,0.26,,,0.10,Wunderground v.1.15,2013-06-02 09:39:00,
2013-06-02 05:44:00,66.7,64.9,29.94,West,271,0.0,0.0,94,0.21,,,0.12,Wunderground v.1.15,2013-06-02 09:44:00,
2013-06-02 05:49:00,66.8,65.0,29.94,West,271,0.0,1.0,94,0.37,,,0.14,Wunderground v.1.15,2013-06-02 09:49:00,
2013-06-02 05:54:00,66.8,65.0,29.94,West,271,0.0,0.0,94,0.31,,,0.17,Wunderground v.1.15,2013-06-02 09:54:00,
2013-06-02 05:59:00,66.8,65.0,29.94,West,271,0.0,0.0,94,0.33,,,0.20,Wunderground v.1.15,2013-06-02 09:59:00,
2013-06-02 06:04:00,66.8,65.0,29.94,West,271,0.0,1.0,94,0.75,,,0.26,Wunderground v.1.15,2013-06-02 10:04:00,
2013-06-02 06:09:00,66.8,65.0,29.94,West,271,0.0,1.0,94,0.27,,,0.29,Wunderground v.1.15,2013-06-02 10:09:00,
2013-06-02 06:14:00,66.8,65.3,29.94,ESE,120,0.0,1.0,95,0.18,,,0.30,Wunderground v.1.15,2013-06-02 10:14:00,
2013-06-02 06:19:00,66.8,65.3,29.95,ESE,118,0.0,1.0,95,0.14,,,0.31,Wunderground v.1.15,2013-06-02 10:19:00,
2013-06-02 06:24:00,66.8,65.3,29.95,ENE,75,0.0,2.0,95,0.13,,,0.32,Wunderground v.1.15,2013-06-02 10:24:00,
2013-06-02 06:29:00,66.9,65.4,29.95,ENE,75,0.0,2.0,95,0.20,,,0.34,Wunderground v.1.15,2013-06-02 10:29:00,
2013-06-02 06:34:00,66.9,65.4,29.95,ENE,75,0.0,0.0,95,0.34,,,0.37,Wunderground v.1.15,2013-06-02 10:34:00,
2013-06-02 06:39:00,66.8,65.3,29.95,ENE,75,0.0,0.0,95,0.14,,,0.38,Wunderground v.1.15,2013-06-02 10:39:00,
2013-06-02 06:44:00,66.7,65.2,29.95,ENE,75,0.0,0.0,95,0.32,,,0.41,Wunderground v.1.15,2013-06-02 10:44:00,
2013-06-02 06:49:00,66.6,64.8,29.95,ENE,75,0.0,1.0,94,0.24,,,0.43,Wunderground v.1.15,2013-06-02 10:49:00,
2013-06-02 06:54:00,66.5,64.7,29.95,ENE,75,0.0,1.0,94,0.22,,,0.45,Wunderground v.1.15,2013-06-02 10:54:00,
2013-06-02 06:59:00,66.5,64.7,29.95,ENE,75,0.0,1.0,94,0.13,,,0.46,Wunderground v.1.15,2013-06-02 10:59:00,
2013-06-02 07:04:00,66.5,64.7,29.95,ENE,75,0.0,0.0,94,0.11,,,0.47,Wunderground v.1.15,2013-06-02 11:04:00,
2013-06-02 07:09:00,66.5,64.7,29.95,ENE,75,0.0,0.0,94,0.16,,,0.48,Wunderground v.1.15,2013-06-02 11:09:00,
2013-06-02 07:14:00,66.5,64.7,29.95,ENE,75,0.0,1.0,94,0.23,,,0.50,Wunderground v.1.15,2013-06-02 11:14:00,
2013-06-02 07:19:00,66.4,64.9,29.95,ENE,75,0.0,1.0,95,0.25,,,0.52,Wunderground v.1.15,2013-06-02 11:19:00,
2013-06-02 07:24:00,66.4,64.9,29.94,ENE,75,0.0,0.0,95,0.13,,,0.53,Wunderground v.1.15,2013-06-02 11:24:00,
2013-06-02 07:29:00,66.4,64.9,29.94,SE,132,0.0,1.0,95,0.15,,,0.54,Wunderground v.1.15,2013-06-02 11:29:00,
2013-06-02 07:34:00,66.3,64.8,29.94,SE,132,0.0,0.0,95,0.13,,,0.55,Wunderground v.1.15,2013-06-02 11:34:00,
2013-06-02 07:39:00,66.3,64.8,29.94,SE,132,0.0,0.0,95,0.12,,,0.56,Wunderground v.1.15,2013-06-02 11:39:00,
2013-06-02 07:44:00,66.2,64.7,29.94,SE,132,0.0,1.0,95,0.09,,,0.57,Wunderground v.1.15,2013-06-02 11:44:00,
2013-06-02 07:49:00,66.2,64.7,29.93,SE,130,0.0,1.0,95,0.07,,,0.57,Wunderground v.1.15,2013-06-02 11:49:00,
2013-06-02 07:54:00,66.1,64.6,29.93,SE,128,0.0,0.0,95,0.06,,,0.58,Wunderground v.1.15,2013-06-02 11:54:00,
2013-06-02 07:59:00,66.1,64.3,29.93,SE,128,0.0,1.0,94,0.06,,,0.58,Wunderground v.1.15,2013-06-02 11:59:00,
2013-06-02 08:04:00,66.1,64.6,29.93,ESE,120,0.0,0.0,95,0.04,,,0.58,Wunderground v.1.15,2013-06-02 12:04:00,
2013-06-02 08:09:00,66.1,64.6,29.93,West,261,0.0,1.0,95,0.04,,,0.59,Wunderground v.1.15,2013-06-02 12:09:00,
2013-06-02 08:14:00,66.1,64.6,29.93,West,261,0.0,1.0,95,0.07,,,0.60,Wunderground v.1.15,2013-06-02 12:14:00,
2013-06-02 08:19:00,66.1,64.6,29.93,West,261,0.0,1.0,95,0.07,,,0.60,Wunderground v.1.15,2013-06-02 12:19:00,
2013-06-02 08:24:00,66.3,64.8,29.93,West,261,0.0,1.0,95,0.06,,,0.60,Wunderground v.1.15,2013-06-02 12:24:00,
2013-06-02 08:29:00,66.5,65.0,29.92,West,261,0.0,1.0,95,0.04,,,0.60,Wunderground v.1.15,2013-06-02 12:29:00,
2013-06-02 08:34:00,66.7,65.2,29.92,WSW,256,0.0,2.0,95,0.00,,,0.60,Wunderground v.1.15,2013-06-02 12:34:00,
2013-06-02 08:39:00,66.8,65.3,29.92,WSW,254,0.0,2.0,95,0.00,,,0.60,Wunderground v.1.15,2013-06-02 12:39:00,
2013-06-02 08:44:00,67.0,65.5,29.93,ENE,64,0.0,3.0,95,0.00,,,0.60,Wunderground v.1.15,2013-06-02 12:44:00,
2013-06-02 08:49:00,67.1,65.6,29.93,ENE,64,0.0,3.0,95,0.00,,,0.60,Wunderground v.1.15,2013-06-02 12:49:00,
2013-06-02 08:54:00,67.3,65.8,29.93,NNE,13,0.0,1.0,95,0.00,,,0.60,Wunderground v.1.15,2013-06-02 12:54:00,
2013-06-02 08:59:00,67.4,65.9,29.92,West,263,0.0,1.0,95,0.00,,,0.60,Wunderground v.1.15,2013-06-02 12:59:00,
2013-06-02 09:04:00,67.5,66.0,29.93,West,277,0.0,0.0,95,0.00,,,0.60,Wunderground v.1.15,2013-06-02 13:04:00,
2013-06-02 09:09:00,67.6,66.1,29.92,NE,55,0.0,1.0,95,0.00,,,0.60,Wunderground v.1.15,2013-06-02 13:09:00,
2013-06-02 09:14:00,67.7,66.2,29.93,NE,54,0.0,0.0,95,0.00,,,0.60,Wunderground v.1.15,2013-06-02 13:14:00,
2013-06-02 09:19:00,67.8,66.3,29.93,WSW,255,0.0,0.0,95,0.00,,,0.60,Wunderground v.1.15,2013-06-02 13:19:00,
2013-06-02 09:24:00,67.8,66.3,29.93,WSW,244,0.0,4.0,95,0.00,,,0.60,Wunderground v.1.15,2013-06-02 13:24:00,
2013-06-02 09:29:00,68.0,66.5,29.93,WSW,244,0.0,4.0,95,0.00,,,0.60,Wunderground v.1.15,2013-06-02 13:29:00,
2013-06-02 09:34:00,67.8,66.3,29.94,WSW,244,0.0,1.0,95,0.00,,,0.60,Wunderground v.1.15,2013-06-02 13:34:00,
2013-06-02 09:39:00,67.9,66.4,29.94,WSW,244,0.0,1.0,95,0.00,,,0.60,Wunderground v.1.15,2013-06-02 13:39:00,
2013-06-02 09:44:00,68.0,66.5,29.94,WSW,244,0.0,0.0,95,0.00,,,0.60,Wunderground v.1.15,2013-06-02 13:44:00,
2013-06-02 09:49:00,68.1,66.6,29.94,WNW,294,0.0,0.0,95,0.00,,,0.60,Wunderground v.1.15,2013-06-02 13:49:00,
2013-06-02 09:54:00,68.2,66.7,29.94,WNW,294,0.0,0.0,95,0.00,,,0.60,Wunderground v.1.15,2013-06-02 13:54:00,
2013-06-02 09:59:00,68.3,66.8,29.94,WNW,294,0.0,0.0,95,0.00,,,0.60,Wunderground v.1.15,2013-06-02 13:59:00,
2013-06-02 10:04:00,68.4,66.9,29.94,North,355,0.0,0.0,95,0.00,,,0.60,Wunderground v.1.15,2013-06-02 14:04:00,
2013-06-02 10:09:00,68.5,67.0,29.94,North,355,0.0,0.0,95,0.00,,,0.60,Wunderground v.1.15,2013-06-02 14:09:00,
2013-06-02 10:14:00,68.5,67.0,29.94,North,355,0.0,0.0,95,0.00,,,0.60,Wunderground v.1.15,2013-06-02 14:14:00,
2013-06-02 10:19:00,68.6,67.1,29.94,North,355,0.0,0.0,95,0.00,,,0.60,Wunderground v.1.15,2013-06-02 14:19:00,
2013-06-02 10:24:00,68.8,67.3,29.94,North,355,0.0,0.0,95,0.00,,,0.60,Wunderground v.1.15,2013-06-02 14:24:00,
2013-06-02 10:29:00,68.8,67.3,29.94,North,355,0.0,0.0,95,0.00,,,0.60,Wunderground v.1.15,2013-06-02 14:29:00,
2013-06-02 10:34:00,68.9,67.4,29.94,North,355,0.0,0.0,95,0.00,,,0.60,Wunderground v.1.15,2013-06-02 14:34:00,
2013-06-02 10:39:00,69.0,67.5,29.94,North,355,0.0,0.0,95,0.00,,,0.60,Wunderground v.1.15,2013-06-02 14:39:00,
2013-06-02 10:44:00,69.0,67.5,29.94,North,355,0.0,0.0,95,0.00,,,0.60,Wunderground v.1.15,2013-06-02 14:44:00,
2013-06-02 10:49:00,69.1,67.6,29.94,North,355,0.0,0.0,95,0.00,,,0.60,Wunderground v.1.15,2013-06-02 14:49:00,
2013-06-02 10:54:00,69.3,67.8,29.93,North,355,0.0,0.0,95,0.00,,,0.60,Wunderground v.1.15,2013-06-02 14:54:00,
2013-06-02 10:59:00,69.2,67.7,29.93,North,355,0.0,0.0,95,0.00,,,0.60,Wunderground v.1.15,2013-06-02 14:59:00,
2013-06-02 11:04:00,69.2,67.7,29.93,North,355,0.0,0.0,95,0.00,,,0.60,Wunderground v.1.15,2013-06-02 15:04:00,
2013-06-02 11:09:00,69.2,67.7,29.93,North,355,0.0,0.0,95,0.00,,,0.60,Wunderground v.1.15,2013-06-02 15:09:00,
2013-06-02 11:14:00,69.6,68.1,29.93,North,355,0.0,1.0,95,0.00,,,0.60,Wunderground v.1.15,2013-06-02 15:14:00,
2013-06-02 11:19:00,70.0,68.5,29.93,North,355,0.0,1.0,95,0.00,,,0.60,Wunderground v.1.15,2013-06-02 15:19:00,
2013-06-02 11:24:00,69.7,67.9,29.93,North,355,0.0,0.0,94,0.00,,,0.60,Wunderground v.1.15,2013-06-02 15:24:00,
2013-06-02 11:29:00,69.6,67.8,29.93,North,355,0.0,0.0,94,0.00,,,0.60,Wunderground v.1.15,2013-06-02 15:29:00,
2013-06-02 11:34:00,69.5,67.7,29.93,North,355,0.0,0.0,94,0.00,,,0.60,Wunderground v.1.15,2013-06-02 15:34:00,
2013-06-02 11:39:00,69.5,67.7,29.93,North,355,0.0,0.0,94,0.00,,,0.61,Wunderground v.1.15,2013-06-02 15:39:00,
2013-06-02 11:44:00,69.6,67.8,29.93,North,355,0.0,1.0,94,0.08,,,0.62,Wunderground v.1.15,2013-06-02 15:44:00,
2013-06-02 11:49:00,69.7,67.9,29.93,NE,48,0.0,1.0,94,0.08,,,0.62,Wunderground v.1.15,2013-06-02 15:49:00,
2013-06-02 11:54:00,70.1,68.3,29.93,NE,48,0.0,1.0,94,0.05,,,0.62,Wunderground v.1.15,2013-06-02 15:54:00,
2013-06-02 11:59:00,70.5,68.7,29.93,NE,48,0.0,1.0,94,0.04,,,0.62,Wunderground v.1.15,2013-06-02 15:59:00,
2013-06-02 12:04:00,71.0,69.2,29.92,NNE,32,0.0,2.0,94,0.00,,,0.62,Wunderground v.1.15,2013-06-02 16:04:00,
2013-06-02 12:09:00,71.4,69.6,29.92,NNE,32,0.0,2.0,94,0.00,,,0.62,Wunderground v.1.15,2013-06-02 16:09:00,
2013-06-02 12:14:00,72.4,70.6,29.92,NW,311,0.0,3.0,94,0.00,,,0.62,Wunderground v.1.15,2013-06-02 16:14:00,
2013-06-02 12:19:00,73.1,71.0,29.92,NNE,17,5.0,7.0,93,0.00,,,0.62,Wunderground v.1.15,2013-06-02 16:19:00,
2013-06-02 12:24:00,73.1,70.0,29.92,SW,228,0.0,8.0,90,0.00,,,0.62,Wunderground v.1.15,2013-06-02 16:24:00,
2013-06-02 12:29:00,73.3,69.9,29.92,North,355,0.0,8.0,89,0.00,,,0.62,Wunderground v.1.15,2013-06-02 16:29:00,
2013-06-02 12:34:00,73.5,70.1,29.92,North,5,0.0,2.0,89,0.00,,,0.62,Wunderground v.1.15,2013-06-02 16:34:00,
2013-06-02 12:39:00,73.3,68.9,29.91,WSW,241,0.0,4.0,86,0.00,,,0.62,Wunderground v.1.15,2013-06-02 16:39:00,
2013-06-02 12:44:00,73.3,68.9,29.91,WSW,254,0.0,2.0,86,0.00,,,0.62,Wunderground v.1.15,2013-06-02 16:44:00,
2013-06-02 12:49:00,73.7,70.3,29.91,West,267,2.0,3.0,89,0.00,,,0.62,Wunderground v.1.15,2013-06-02 16:49:00,
2013-06-02 12:54:00,73.9,69.4,29.91,West,259,0.0,3.0,86,0.00,,,0.62,Wunderground v.1.15,2013-06-02 16:54:00,
2013-06-02 12:59:00,74.1,69.3,29.91,West,271,0.0,3.0,85,0.00,,,0.62,Wunderground v.1.15,2013-06-02 16:59:00,
2013-06-02 13:04:00,74.6,69.8,29.91,NNW,346,0.0,6.0,85,0.00,,,0.62,Wunderground v.1.15,2013-06-02 17:04:00,
2013-06-02 13:09:00,74.9,69.4,29.90,NW,324,0.0,6.0,83,0.00,,,0.62,Wunderground v.1.15,2013-06-02 17:09:00,
2013-06-02 13:14:00,75.3,70.1,29.90,NW,319,0.0,1.0,84,0.00,,,0.62,Wunderground v.1.15,2013-06-02 17:14:00,
2013-06-02 13:19:00,75.2,69.0,29.90,South,179,5.0,5.0,81,0.00,,,0.62,Wunderground v.1.15,2013-06-02 17:19:00,
2013-06-02 13:28:00,75.1,68.1,29.90,ENE,57,0.0,0.0,79,0.00,,,0.62,Wunderground v.1.15,2013-06-02 17:28:00,
2013-06-02 13:33:00,75.1,68.1,29.90,West,263,0.0,3.0,79,0.00,,,0.62,Wunderground v.1.15,2013-06-02 17:33:00,
2013-06-02 13:38:00,75.2,68.6,29.90,West,263,0.0,0.0,80,0.00,,,0.62,Wunderground v.1.15,2013-06-02 17:38:00,
2013-06-02 13:43:00,75.2,68.6,29.90,SW,215,3.0,5.0,80,0.00,,,0.62,Wunderground v.1.15,2013-06-02 17:43:00,
2013-06-02 13:48:00,75.1,68.5,29.89,SW,215,0.0,1.0,80,0.00,,,0.62,Wunderground v.1.15,2013-06-02 17:48:00,
2013-06-02 13:53:00,75.0,68.4,29.89,SW,217,0.0,3.0,80,0.00,,,0.62,Wunderground v.1.15,2013-06-02 17:53:00,
2013-06-02 13:58:00,75.1,69.2,29.89,NW,306,0.0,0.0,82,0.00,,,0.62,Wunderground v.1.15,2013-06-02 17:58:00,
2013-06-02 14:03:00,75.1,69.2,29.89,WNW,302,0.0,1.0,82,0.00,,,0.62,Wunderground v.1.15,2013-06-02 18:03:00,
2013-06-02 14:08:00,74.9,67.9,29.89,SSW,198,0.0,5.0,79,0.00,,,0.62,Wunderground v.1.15,2013-06-02 18:08:00,
2013-06-02 14:13:00,74.6,68.4,29.89,SSW,198,0.0,1.0,81,0.00,,,0.62,Wunderground v.1.15,2013-06-02 18:13:00,
2013-06-02 14:18:00,74.4,67.8,29.89,SW,236,0.0,1.0,80,0.00,,,0.62,Wunderground v.1.15,2013-06-02 18:18:00,
2013-06-02 14:23:00,74.1,68.6,29.89,SSE,151,2.0,4.0,83,0.00,,,0.62,Wunderground v.1.15,2013-06-02 18:23:00,
2013-06-02 14:28:00,73.8,68.3,29.89,South,176,0.0,4.0,83,0.00,,,0.62,Wunderground v.1.15,2013-06-02 18:28:00,
2013-06-02 14:33:00,73.5,68.0,29.90,South,176,0.0,0.0,83,0.00,,,0.62,Wunderground v.1.15,2013-06-02 18:33:00,
2013-06-02 14:38:00,72.8,67.0,29.90,NNE,12,7.0,8.0,82,0.00,,,0.62,Wunderground v.1.15,2013-06-02 18:38:00,
2013-06-02 14:43:00,71.3,65.9,29.91,West,281,0.0,7.0,83,0.00,,,0.62,Wunderground v.1.15,2013-06-02 18:43:00,
2013-06-02 14:48:00,70.1,65.4,29.91,SSW,198,3.0,9.0,85,0.46,,,0.63,Wunderground v.1.15,2013-06-02 18:48:00,
2013-06-02 14:53:00,69.2,64.8,29.90,East,94,0.0,4.0,86,0.38,,,0.74,Wunderground v.1.15,2013-06-02 18:53:00,
2013-06-02 14:58:00,68.6,64.9,29.90,WSW,244,3.0,4.0,88,0.10,,,0.75,Wunderground v.1.15,2013-06-02 18:58:00,
2013-06-02 15:03:00,68.3,64.9,29.89,West,277,0.0,3.0,89,0.10,,,0.75,Wunderground v.1.15,2013-06-02 19:03:00,
2013-06-02 15:08:00,68.1,64.7,29.89,West,267,0.0,3.0,89,0.06,,,0.75,Wunderground v.1.15,2013-06-02 19:08:00,
2013-06-02 15:13:00,68.2,64.8,29.89,West,267,0.0,0.0,89,0.04,,,0.75,Wunderground v.1.15,2013-06-02 19:13:00,
2013-06-02 15:18:00,68.6,65.9,29.90,West,267,0.0,1.0,91,0.00,,,0.75,Wunderground v.1.15,2013-06-02 19:18:00,
2013-06-02 15:23:00,68.9,66.2,29.90,North,360,4.0,4.0,91,0.00,,,0.75,Wunderground v.1.15,2013-06-02 19:23:00,
2013-06-02 15:28:00,68.6,65.2,29.90,NNE,18,2.0,4.0,89,0.00,,,0.76,Wunderground v.1.15,2013-06-02 19:28:00,
2013-06-02 15:33:00,68.5,65.4,29.90,NE,40,4.0,6.0,90,0.00,,,0.76,Wunderground v.1.15,2013-06-02 19:33:00,
2013-06-02 15:38:00,68.5,65.1,29.90,SE,140,0.0,6.0,89,0.00,,,0.76,Wunderground v.1.15,2013-06-02 19:38:00,
2013-06-02 15:43:00,68.5,64.8,29.90,NE,41,0.0,2.0,88,0.00,,,0.76,Wunderground v.1.15,2013-06-02 19:43:00,
2013-06-02 15:48:00,68.7,65.0,29.89,NE,41,0.0,2.0,88,0.00,,,0.76,Wunderground v.1.15,2013-06-02 19:48:00,
2013-06-02 15:53:00,69.1,65.7,29.89,NNE,26,0.0,1.0,89,0.00,,,0.76,Wunderground v.1.15,2013-06-02 19:53:00,
2013-06-02 15:58:00,69.3,65.9,29.88,ENE,68,0.0,4.0,89,0.00,,,0.76,Wunderground v.1.15,2013-06-02 19:58:00,
2013-06-02 16:03:00,69.4,66.3,29.89,ENE,74,0.0,0.0,90,0.00,,,0.76,Wunderground v.1.15,2013-06-02 20:03:00,
2013-06-02 16:08:00,69.7,66.3,29.89,ESE,119,0.0,2.0,89,0.00,,,0.76,Wunderground v.1.15,2013-06-02 20:08:00,
2013-06-02 16:13:00,69.8,66.4,29.89,ESE,116,0.0,1.0,89,0.00,,,0.76,Wunderground v.1.15,2013-06-02 20:13:00,
2013-06-02 16:18:00,69.8,66.4,29.89,East,85,2.0,4.0,89,0.00,,,0.76,Wunderground v.1.15,2013-06-02 20:18:00,
2013-06-02 16:23:00,69.9,66.5,29.89,East,85,0.0,1.0,89,0.00,,,0.76,Wunderground v.1.15,2013-06-02 20:23:00,
2013-06-02 16:28:00,69.8,66.4,29.90,East,85,0.0,1.0,89,0.00,,,0.76,Wunderground v.1.15,2013-06-02 20:28:00,
2013-06-02 16:33:00,70.1,67.0,29.89,East,85,0.0,0.0,90,0.00,,,0.76,Wunderground v.1.15,2013-06-02 20:33:00,
2013-06-02 16:38:00,70.2,67.1,29.89,East,85,0.0,0.0,90,0.00,,,0.76,Wunderground v.1.15,2013-06-02 20:38:00,
2013-06-02 16:43:00,70.2,67.1,29.88,East,85,0.0,0.0,90,0.00,,,0.76,Wunderground v.1.15,2013-06-02 20:43:00,
2013-06-02 16:48:00,70.1,66.7,29.88,East,85,0.0,3.0,89,0.00,,,0.76,Wunderground v.1.15,2013-06-02 20:48:00,
2013-06-02 16:53:00,70.0,66.6,29.87,ENE,71,3.0,3.0,89,0.00,,,0.76,Wunderground v.1.15,2013-06-02 20:53:00,
2013-06-02 16:58:00,69.7,66.3,29.87,NE,47,0.0,5.0,89,0.00,,,0.76,Wunderground v.1.15,2013-06-02 20:58:00,
2013-06-02 17:03:00,69.7,66.6,29.86,NE,47,0.0,1.0,90,0.00,,,0.77,Wunderground v.1.15,2013-06-02 21:03:00,
2013-06-02 17:08:00,69.7,66.6,29.86,NE,47,0.0,3.0,90,0.00,,,0.77,Wunderground v.1.15,2013-06-02 21:08:00,
2013-06-02 17:13:00,69.5,66.4,29.86,NE,47,0.0,1.0,90,0.00,,,0.77,Wunderground v.1.15,2013-06-02 21:13:00,
2013-06-02 17:18:00,69.4,66.3,29.86,NE,47,0.0,1.0,90,0.00,,,0.77,Wunderground v.1.15,2013-06-02 21:18:00,
2013-06-02 17:23:00,69.4,66.3,29.86,NE,47,0.0,0.0,90,0.00,,,0.77,Wunderground v.1.15,2013-06-02 21:23:00,
2013-06-02 17:28:00,69.6,66.5,29.86,NE,47,0.0,1.0,90,0.00,,,0.77,Wunderground v.1.15,2013-06-02 21:28:00,
2013-06-02 17:33:00,69.6,66.5,29.86,NE,47,0.0,1.0,90,0.00,,,0.77,Wunderground v.1.15,2013-06-02 21:33:00,
2013-06-02 17:38:00,69.7,66.6,29.86,NE,47,0.0,1.0,90,0.00,,,0.77,Wunderground v.1.15,2013-06-02 21:38:00,
2013-06-02 17:43:00,70.1,67.0,29.86,NE,47,0.0,1.0,90,0.00,,,0.77,Wunderground v.1.15,2013-06-02 21:43:00,
2013-06-02 17:48:00,70.2,67.1,29.86,NE,47,2.0,2.0,90,0.00,,,0.77,Wunderground v.1.15,2013-06-02 21:48:00,
2013-06-02 17:53:00,70.2,66.8,29.86,NE,47,0.0,1.0,89,0.00,,,0.77,Wunderground v.1.15,2013-06-02 21:53:00,
2013-06-02 17:58:00,70.4,67.3,29.86,SW,234,0.0,2.0,90,0.00,,,0.77,Wunderground v.1.15,2013-06-02 21:58:00,
2013-06-02 18:03:00,70.5,67.4,29.86,SW,225,0.0,0.0,90,0.00,,,0.77,Wunderground v.1.15,2013-06-02 22:03:00,
2013-06-02 18:08:00,70.5,67.4,29.87,SW,225,0.0,1.0,90,0.00,,,0.77,Wunderground v.1.15,2013-06-02 22:08:00,
2013-06-02 18:13:00,70.4,67.3,29.86,SW,225,0.0,0.0,90,0.00,,,0.77,Wunderground v.1.15,2013-06-02 22:13:00,
2013-06-02 18:18:00,70.5,67.7,29.86,SW,225,0.0,0.0,91,0.00,,,0.77,Wunderground v.1.15,2013-06-02 22:18:00,
2013-06-02 18:23:00,70.6,67.8,29.86,SW,225,0.0,0.0,91,0.00,,,0.77,Wunderground v.1.15,2013-06-02 22:23:00,
2013-06-02 18:28:00,70.7,67.9,29.86,SW,225,0.0,0.0,91,0.00,,,0.77,Wunderground v.1.15,2013-06-02 22:28:00,
2013-06-02 18:33:00,70.8,68.0,29.86,SW,225,0.0,0.0,91,0.00,,,0.77,Wunderground v.1.15,2013-06-02 22:33:00,
2013-06-02 18:38:00,70.6,67.8,29.86,SW,225,0.0,2.0,91,0.00,,,0.77,Wunderground v.1.15,2013-06-02 22:38:00,
2013-06-02 18:43:00,70.8,68.0,29.86,West,267,2.0,3.0,91,0.00,,,0.77,Wunderground v.1.15,2013-06-02 22:43:00,
2013-06-02 18:48:00,70.9,68.1,29.86,WNW,283,0.0,3.0,91,0.00,,,0.77,Wunderground v.1.15,2013-06-02 22:48:00,
2013-06-02 18:53:00,70.8,67.7,29.87,WNW,283,0.0,1.0,90,0.00,,,0.77,Wunderground v.1.15,2013-06-02 22:53:00,
2013-06-02 18:58:00,71.0,67.9,29.86,WNW,283,0.0,1.0,90,0.00,,,0.77,Wunderground v.1.15,2013-06-02 22:58:00,
2013-06-02 19:03:00,71.0,67.6,29.87,WNW,283,0.0,2.0,89,0.00,,,0.77,Wunderground v.1.15,2013-06-02 23:03:00,
2013-06-02 19:08:00,71.0,67.6,29.87,WNW,283,0.0,2.0,89,0.00,,,0.77,Wunderground v.1.15,2013-06-02 23:08:00,
2013-06-02 19:13:00,71.2,68.1,29.87,WNW,283,0.0,0.0,90,0.00,,,0.77,Wunderground v.1.15,2013-06-02 23:13:00,
2013-06-02 19:18:00,71.3,68.2,29.87,West,268,0.0,1.0,90,0.00,,,0.77,Wunderground v.1.15,2013-06-02 23:18:00,
2013-06-02 19:23:00,71.2,67.8,29.87,West,268,0.0,1.0,89,0.00,,,0.77,Wunderground v.1.15,2013-06-02 23:23:00,
2013-06-02 19:28:00,70.8,66.7,29.87,WNW,284,0.0,1.0,87,0.00,,,0.77,Wunderground v.1.15,2013-06-02 23:28:00,
2013-06-02 19:33:00,70.7,67.3,29.87,WNW,284,0.0,0.0,89,0.00,,,0.77,Wunderground v.1.15,2013-06-02 23:33:00,
2013-06-02 19:38:00,70.8,67.4,29.87,WNW,284,0.0,0.0,89,0.00,,,0.77,Wunderground v.1.15,2013-06-02 23:38:00,
2013-06-02 19:43:00,70.7,67.3,29.87,WNW,284,0.0,0.0,89,0.00,,,0.77,Wunderground v.1.15,2013-06-02 23:43:00,
2013-06-02 19:48:00,70.7,67.6,29.87,WNW,284,0.0,0.0,90,0.00,,,0.77,Wunderground v.1.15,2013-06-02 23:48:00,
2013-06-02 19:53:00,70.6,67.5,29.87,WNW,284,0.0,0.0,90,0.00,,,0.77,Wunderground v.1.15,2013-06-02 23:53:00,
2013-06-02 19:58:00,70.6,67.5,29.87,SSW,196,0.0,1.0,90,0.00,,,0.77,Wunderground v.1.15,2013-06-02 23:58:00,
2013-06-02 20:03:00,70.4,67.3,29.88,SSW,196,0.0,0.0,90,0.00,,,0.77,Wunderground v.1.15,2013-06-03 00:03:00,
2013-06-02 20:08:00,70.2,67.1,29.88,SSW,196,0.0,0.0,90,0.00,,,0.77,Wunderground v.1.15,2013-06-03 00:08:00,
2013-06-02 20:13:00,69.9,66.8,29.88,SSW,196,0.0,0.0,90,0.00,,,0.77,Wunderground v.1.15,2013-06-03 00:13:00,
2013-06-02 20:18:00,69.7,67.0,29.88,SSW,196,0.0,0.0,91,0.00,,,0.77,Wunderground v.1.15,2013-06-03 00:18:00,
2013-06-02 20:23:00,69.4,66.3,29.88,SSW,196,0.0,0.0,90,0.00,,,0.77,Wunderground v.1.15,2013-06-03 00:23:00,
2013-06-02 20:28:00,69.2,66.5,29.88,SSW,196,0.0,0.0,91,0.00,,,0.77,Wunderground v.1.15,2013-06-03 00:28:00,
2013-06-02 20:33:00,68.8,65.7,29.88,SSW,196,0.0,0.0,90,0.00,,,0.77,Wunderground v.1.15,2013-06-03 00:33:00,
2013-06-02 20:38:00,68.5,65.4,29.88,SSW,196,0.0,0.0,90,0.00,,,0.77,Wunderground v.1.15,2013-06-03 00:38:00,
2013-06-02 20:43:00,68.2,65.5,29.88,SSW,196,0.0,0.0,91,0.00,,,0.77,Wunderground v.1.15,2013-06-03 00:43:00,
2013-06-02 20:48:00,68.0,65.3,29.88,SSW,196,0.0,0.0,91,0.00,,,0.77,Wunderground v.1.15,2013-06-03 00:48:00,
2013-06-02 20:53:00,67.9,65.2,29.88,SSW,196,0.0,0.0,91,0.00,,,0.77,Wunderground v.1.15,2013-06-03 00:53:00,
2013-06-02 20:58:00,67.6,64.9,29.88,SSW,196,0.0,0.0,91,0.00,,,0.77,Wunderground v.1.15,2013-06-03 00:58:00,
2013-06-02 21:03:00,67.4,65.0,29.88,SSW,196,0.0,0.0,92,0.00,,,0.77,Wunderground v.1.15,2013-06-03 01:03:00,
2013-06-02 21:08:00,67.3,64.9,29.89,SSW,196,0.0,0.0,92,0.00,,,0.77,Wunderground v.1.15,2013-06-03 01:08:00,
2013-06-02 21:13:00,67.3,65.2,29.89,SSW,196,0.0,0.0,93,0.00,,,0.77,Wunderground v.1.15,2013-06-03 01:13:00,
2013-06-02 21:18:00,67.3,65.2,29.89,SSW,196,0.0,0.0,93,0.00,,,0.77,Wunderground v.1.15,2013-06-03 01:18:00,
2013-06-02 21:23:00,67.2,65.1,29.88,SSW,196,0.0,0.0,93,0.00,,,0.77,Wunderground v.1.15,2013-06-03 01:23:00,
2013-06-02 21:28:00,67.1,65.0,29.88,SSW,196,0.0,0.0,93,0.00,,,0.77,Wunderground v.1.15,2013-06-03 01:28:00,
2013-06-02 21:33:00,67.0,64.9,29.88,SSW,196,0.0,0.0,93,0.00,,,0.77,Wunderground v.1.15,2013-06-03 01:33:00,
2013-06-02 21:39:00,66.8,64.7,29.88,SSW,196,0.0,0.0,93,0.00,,,0.77,Wunderground v.1.15,2013-06-03 01:39:00,
2013-06-02 21:44:00,66.6,64.5,29.89,SSW,196,0.0,0.0,93,0.00,,,0.77,Wunderground v.1.15,2013-06-03 01:44:00,
2013-06-02 21:48:00,66.4,64.3,29.89,SSW,196,0.0,0.0,93,0.00,,,0.77,Wunderground v.1.15,2013-06-03 01:48:00,
2013-06-02 21:53:00,66.4,64.3,29.89,SSW,196,0.0,0.0,93,0.00,,,0.77,Wunderground v.1.15,2013-06-03 01:53:00,
2013-06-02 21:58:00,66.5,64.4,29.89,SSW,196,0.0,0.0,93,0.00,,,0.77,Wunderground v.1.15,2013-06-03 01:58:00,
2013-06-02 22:03:00,66.6,64.8,29.89,SSW,196,0.0,0.0,94,0.00,,,0.77,Wunderground v.1.15,2013-06-03 02:03:00,
2013-06-02 22:08:00,66.8,65.0,29.89,SSW,196,0.0,0.0,94,0.00,,,0.77,Wunderground v.1.15,2013-06-03 02:08:00,
2013-06-02 22:13:00,66.8,65.0,29.89,SSW,196,0.0,0.0,94,0.00,,,0.77,Wunderground v.1.15,2013-06-03 02:13:00,
2013-06-02 22:18:00,66.9,65.1,29.89,SSW,196,0.0,0.0,94,0.00,,,0.77,Wunderground v.1.15,2013-06-03 02:18:00,
2013-06-02 22:23:00,67.0,65.2,29.89,SSW,196,0.0,0.0,94,0.00,,,0.78,Wunderground v.1.15,2013-06-03 02:23:00,
2013-06-02 22:28:00,67.0,65.2,29.90,SSW,196,0.0,0.0,94,0.00,,,0.78,Wunderground v.1.15,2013-06-03 02:28:00,
2013-06-02 22:33:00,67.1,65.3,29.89,SSW,196,0.0,0.0,94,0.06,,,0.79,Wunderground v.1.15,2013-06-03 02:33:00,
2013-06-02 22:38:00,67.2,65.4,29.90,SSW,196,0.0,0.0,94,0.32,,,0.81,Wunderground v.1.15,2013-06-03 02:38:00,
2013-06-02 22:43:00,67.3,65.5,29.90,SSW,196,0.0,0.0,94,0.53,,,0.84,Wunderground v.1.15,2013-06-03 02:43:00,
2013-06-02 22:48:00,67.3,65.5,29.90,SSW,196,0.0,0.0,94,0.38,,,0.88,Wunderground v.1.15,2013-06-03 02:48:00,
2013-06-02 22:53:00,67.4,65.6,29.90,SSW,196,0.0,0.0,94,0.78,,,0.94,Wunderground v.1.15,2013-06-03 02:53:00,
2013-06-02 22:58:00,67.4,65.6,29.90,SSW,196,0.0,0.0,94,0.71,,,0.99,Wunderground v.1.15,2013-06-03 02:58:00,
2013-06-02 23:03:00,67.5,65.7,29.90,SSW,196,0.0,0.0,94,0.48,,,1.02,Wunderground v.1.15,2013-06-03 03:03:00,
2013-06-02 23:08:00,67.4,65.6,29.89,SSW,196,0.0,0.0,94,0.14,,,1.03,Wunderground v.1.15,2013-06-03 03:08:00,
2013-06-02 23:14:00,67.5,65.7,29.89,SSW,196,0.0,0.0,94,0.11,,,1.03,Wunderground v.1.15,2013-06-03 03:14:00,
2013-06-02 23:19:00,67.5,65.7,29.89,SSW,196,0.0,0.0,94,0.05,,,1.03,Wunderground v.1.15,2013-06-03 03:19:00,
2013-06-02 23:24:00,67.6,65.8,29.89,SSW,196,0.0,0.0,94,0.04,,,1.03,Wunderground v.1.15,2013-06-03 03:24:00,
2013-06-02 23:29:00,67.6,65.8,29.89,SSW,196,0.0,0.0,94,0.00,,,1.03,Wunderground v.1.15,2013-06-03 03:29:00,
2013-06-02 23:34:00,67.5,65.7,29.88,SSW,196,0.0,0.0,94,0.00,,,1.03,Wunderground v.1.15,2013-06-03 03:34:00,
2013-06-02 23:39:00,67.5,65.7,29.88,SSW,196,0.0,0.0,94,0.00,,,1.03,Wunderground v.1.15,2013-06-03 03:39:00,
2013-06-02 23:44:00,67.4,65.6,29.89,SSW,196,0.0,0.0,94,0.00,,,1.03,Wunderground v.1.15,2013-06-03 03:44:00,
2013-06-02 23:49:00,67.2,65.4,29.88,SSW,196,0.0,0.0,94,0.00,,,1.03,Wunderground v.1.15,2013-06-03 03:49:00,
2013-06-02 23:54:00,67.1,65.3,29.88,SSW,196,0.0,0.0,94,0.00,,,1.03,Wunderground v.1.15,2013-06-03 03:54:00,
2013-06-02 23:59:00,66.9,65.1,29.88,SSW,196,0.0,0.0,94,0.00,,,1.03,Wunderground v.1.15,2013-06-03 03:59:00,